AirNav   Duncan Aviation - Near you to keep you flying
 
 1434 users online  

4AR2 Red Oak Airport
Cabot, Arkansas, USA

GOING TO CABOT?


FAA INFORMATION EFFECTIVE 21 APRIL 2022

Location

FAA Identifier: 4AR2
Lat/Long: 34-54-37.6300N 092-00-25.1125W
34-54.627167N 092-00.418542W
34.9104528,-92.0069757
(estimated)
Elevation: 315 ft. / 96 m (estimated)
Variation: 02E (2000)
From city: 4 miles S of CABOT, AR
Time zone: UTC -5 (UTC -6 during Standard Time)
Zip code: 72023

Airport Operations

Airport use: Private use. Permission required prior to landing
Activation date: 06/2002
Control tower: no
ARTCC: MEMPHIS CENTER
FSS: JONESBORO FLIGHT SERVICE STATION
Attendance: UNATNDD
Segmented circle: no

Airport Communications

WX AWOS-3PT at ORK (13 nm W): 123.775 (501-906-6529)
WX ASOS at LIT (15 nm SW): PHONE 501-376-0247
WX AWOS-2 at 4M3 (16 nm SE): 119.275 (870-552-1445)

Nearby radio navigation aids

VOR radial/distance  VOR name  Freq  Var
LITr026/16.4LITTLE ROCK VORTAC113.9005E

Airport Services

Runway Information

Runway 9/27

Dimensions: 3700 x 100 ft. / 1128 x 30 m
Surface: turf
RUNWAY 9  RUNWAY 27
Latitude: 34-54.633083N34-54.621250N
Longitude: 092-00.788917W092-00.048167W
Elevation: 290.0 ft.306.0 ft.
Traffic pattern: leftleft

Airport Ownership and Management from official FAA records

Ownership: Privately-owned
Owner: RED OAK PROPERTY OWNERS ASSOCIATION
160 OLIVER LANE
CABOT, AR 72023
Phone 501-681-3933
MAXIECRISWELL@SUDDENLINK.NET
Manager: MAX CRISWELL
160 OLIVER LANE
CABOT, AR 72023
Phone 501-681-3933

Additional Remarks

FOR CD CTC LITTLE ROCK APCH 501-379-2908 OR LITTLE ROCK ATCT 501-379-2911.

Instrument Procedures

There are no published instrument procedures at 4AR2.

Some nearby airports with instrument procedures:

KLRF - Little Rock Air Force Base (7 nm W)
KORK - North Little Rock Municipal Airport (13 nm W)
KLIT - Bill and Hillary Clinton National Airport/Adams Field (15 nm SW)
4M3 - Carlisle Municipal Airport (16 nm SE)
KSRC - Searcy Municipal Airport (22 nm NE)
 
Loc | Ops | Rwys | IFR | FBO | Links
Com | Nav | Svcs | Stats | Notes
Area around 4AR2 (Red Oak Airport)
 
Road maps at: MapQuest Bing Google
 
Aerial photo
No photo
 
Sectional chart

 
Airport distance calculator
Flying to Red Oak Airport? Find the distance to fly.

From to 4AR2

Sunrise and sunset
Times for 18-May-2022
 Local
(UTC-5)
 Zulu
(UTC)
Morning civil twilight05:3510:35
Sunrise06:0311:03
Sunset20:0501:05
Evening civil twilight20:3401:34

Current date and time
Zulu (UTC)  18-May-2022 22:15:10
Local (UTC-5)  18-May-2022 17:15:10
 
METAR
KLRF 
7nm W 
182156Z AUTO 21011G16KT 10SM CLR 32/19 A2981 RMK AO2 SLP095 T03210186
KORK 
13nm W 
182155Z AUTO 22009G16KT 10SM CLR 30/20 A2982 RMK AO2
KLIT 
15nm SW 
182153Z 21014G19KT 10SM FEW220 FEW250 32/19 A2982 RMK AO2 SLP098 T03170189
TAF
KLRF 
7nm W 
181619Z 1816/1921 22009KT 9999 FEW200 WS020/21030KT QNH2978INS TEMPO 1816/1821 22012G18KT BECMG 1901/1902 23006KT 9999 FEW200 QNH2979INS BECMG 1913/1914 23015G25KT 9999 FEW020 QNH2963INS TX31/1820Z TN22/1910Z
KLIT 
15nm SW 
181720Z 1818/1918 22012G18KT P6SM BKN120 FM190200 VRB05KT P6SM SCT250 FM191500 22011KT P6SM SCT250
NOTAMs
Click for the latest NOTAMs
NOTAMs are issued by the DoD/FAA and will open in a separate window not controlled by AirNav.

 

 
 

Would you like to see your business listed on this page?

 If your business provides an interesting product or service to pilots, flight crews, aircraft, or users of the Red Oak Airport, you should consider listing it here.  To start the listing process, click on the button below
 
Add a business
 

Other Pages about Red Oak Airport

Update a link
 
Copyright © AirNav, LLC. All rights reserved. Privacy Policy  Contact